[[{"header":{"parameterUnit":"m.s-1","parameterCategory":1,"la1":30.2992,"la2":30.254,"lo1":-89.0895,"lo2":-89.0443,"dy":0.0025,"dx":0.0025,"nx":19,"ny":19,"refTime":"2026-04-30T03:00:00:Z","depth":0,"parameterNumber":2,"parameterNumberName":"U-component_of_WINDS"},"data":[0,0,0,-6.7233,-6.7237,-6.7394,-6.7395,-6.7639,-6.7642,0,0,0,0,0,0,0,0,0,0,0,-6.7213,-6.7216,-6.7232,-6.7237,-6.7394,-6.7395,-6.7639,-6.7642,0,0,0,0,0,0,0,0,0,0,0,-6.7212,-6.7215,-6.7219,-6.7238,-6.7394,-6.7395,-6.7638,-6.7504,0,0,0,0,0,0,0,0,0,0,-6.7343,-6.7352,-6.7214,-6.7219,-6.7239,-6.7394,-6.7395,-6.7497,-6.7512,-6.7587,0,-6.7661,0,-6.7656,-6.7661,-6.7662,0,0,0,-6.7216,-6.734,-6.7358,-6.7219,-6.7241,-6.7394,-6.7318,-6.7505,-6.7523,-6.7608,-6.7665,-6.7672,-6.766,-6.7663,-6.7665,-6.8167,-6.817,0,0,-6.7208,-6.7256,-6.7346,-6.737,-6.735,-6.7313,-6.7323,-6.7515,-6.7579,-6.7665,-6.7677,-6.7664,-6.7665,-6.7667,-6.8164,-6.8168,0,0,0,-6.7197,-6.7251,-6.7263,-6.7362,-6.7387,-6.7318,-6.7329,-6.7571,-6.7571,-6.768,-6.7667,-6.7667,-6.767,-6.816,-6.8165,-6.8378,0,0,0,-6.719,-6.7244,-6.726,-6.7292,-6.7384,-6.7481,-6.7382,-6.7557,-6.7578,-6.7666,-6.7667,-6.7673,-6.8156,-6.8163,-6.8364,-6.8471,0,0,0,-6.7194,-6.7244,-6.7277,-6.7294,-6.7363,-6.7477,-6.7487,-6.7561,-6.7571,-6.7662,-6.7674,-6.8154,-6.8162,-6.8352,-6.8451,-6.8619,0,0,0,-6.7211,-6.7462,-6.7281,-6.7556,-6.7363,-6.7607,-6.7485,-6.7664,-6.7768,-6.7668,-6.8157,-6.8165,-6.8348,-6.8438,-6.8606,-6.8772,-6.8844,0,0,-6.7555,-6.7505,-6.7663,-6.7506,-6.7796,-6.7579,-6.7899,-6.7947,-6.7911,-6.8083,-6.8095,-6.8369,-6.8449,-6.8617,-6.9231,-6.929,0,0,0,-6.7789,-6.7904,-6.7969,-6.8071,-6.8115,-6.8161,-6.8155,-6.8173,-6.8317,-6.801,-6.8472,-6.8519,-6.8615,-6.8692,-6.8741,-6.8821,-6.8202,-6.8201,-6.82,-6.8346,-6.8287,-6.8545,-6.8506,-6.8606,-6.8597,-6.8673,-6.8695,-6.8605,-6.8716,-6.8767,-6.9148,-6.9239,-6.9276,-6.9361,-6.8847,-6.8848,-6.8849,-6.885,-6.8846,-6.9,-6.8875,-6.9082,-6.9017,-6.9189,-6.9191,-6.9121,-6.9272,-6.9103,-6.9185,-6.9008,-6.9342,-6.9413,-6.8865,-6.8862,-6.886,-6.8859,-6.8858,-6.9207,-6.9271,-6.9288,-6.943,-6.9545,-6.9494,-6.9646,-6.9581,-6.952,-6.9601,-6.965,-6.9646,-6.9636,-6.9628,-6.963,-6.9631,-6.9632,-6.9633,-6.9634,-6.9575,-6.9588,-6.9724,-6.9792,-6.9849,-6.9916,-6.991,-6.9964,-7.0007,-6.9948,-6.9948,-6.9849,-6.9385,-6.9271,-6.9654,-6.965,-6.9648,-6.9646,-6.9645,-7.0109,-6.9978,-7.0188,-7.0246,-7.032,-7.044,-7.0354,-7.0471,-7.0505,-7.0583,-7.0465,-7.0132,-7.0076,-7.0036,-6.9942,-7.0475,-7.0475,-7.0475,-7.0476,-7.0415,-7.038,-7.0581,-7.0678,-7.0764,-7.0709,-7.0949,-7.0947,-7.0923,-7.0941,-7.0854,-7.0722,-7.0684,-7.0651,-7.0598,-7.0509,-7.1175,-7.1176,-7.1176,-7.0741,-7.0711,-7.0929,-7.0905,-7.0959,-7.1006,-7.123,-7.1346,-7.1291,-7.1203,-7.0955,-7.0925,-7.0711,-7.0645,-7.0553,-7.0472,-7.0307,0,0]},{"header":{"parameterUnit":"m.s-1","parameterCategory":1,"la1":30.2992,"la2":30.254,"lo1":-89.0895,"lo2":-89.0443,"dy":0.0025,"dx":0.0025,"nx":19,"ny":19,"refTime":"2026-04-30T03:00:00:Z","depth":0,"parameterNumber":3,"parameterNumberName":"V-component_of_WINDS"},"data":[0,0,0,-4.2294,-4.2294,-4.2303,-4.2303,-4.2327,-4.2327,0,0,0,0,0,0,0,0,0,0,0,-4.2301,-4.2302,-4.2294,-4.2294,-4.2303,-4.2303,-4.2326,-4.2327,0,0,0,0,0,0,0,0,0,0,0,-4.2301,-4.2301,-4.2302,-4.2294,-4.2303,-4.2303,-4.2326,-4.2315,0,0,0,0,0,0,0,0,0,0,-4.2304,-4.2321,-4.2301,-4.2302,-4.2294,-4.2303,-4.2303,-4.2314,-4.2316,-4.2329,0,-4.2345,0,-4.2336,-4.2329,-4.233,0,0,0,-4.2286,-4.232,-4.2313,-4.2302,-4.2295,-4.2303,-4.2297,-4.2315,-4.2316,-4.2331,-4.2345,-4.2346,-4.2337,-4.233,-4.233,-4.2434,-4.2435,0,0,-4.2286,-4.2308,-4.2312,-4.2315,-4.2317,-4.2297,-4.2297,-4.2316,-4.2332,-4.2345,-4.2346,-4.2337,-4.233,-4.233,-4.2433,-4.2434,0,0,0,-4.229,-4.2308,-4.23,-4.2315,-4.2315,-4.2297,-4.2298,-4.2331,-4.2327,-4.2346,-4.2337,-4.233,-4.2331,-4.2432,-4.2433,-4.2495,0,0,0,-4.2289,-4.231,-4.2301,-4.2314,-4.2315,-4.2324,-4.2313,-4.2326,-4.2327,-4.2337,-4.233,-4.2331,-4.2431,-4.2433,-4.2491,-4.252,0,0,0,-4.2297,-4.2311,-4.2316,-4.2315,-4.232,-4.2323,-4.232,-4.2325,-4.2322,-4.233,-4.2331,-4.243,-4.2432,-4.2488,-4.2515,-4.2552,0,0,0,-4.2312,-4.2372,-4.2317,-4.2381,-4.232,-4.2362,-4.2319,-4.235,-4.2364,-4.233,-4.2431,-4.2433,-4.2487,-4.2512,-4.2549,-4.2586,-4.2604,0,0,-4.24,-4.2384,-4.2419,-4.237,-4.2428,-4.2359,-4.2425,-4.2417,-4.2397,-4.2422,-4.2424,-4.2493,-4.2515,-4.2551,-4.2702,-4.2717,0,0,0,-4.2454,-4.248,-4.249,-4.2505,-4.25,-4.2497,-4.2477,-4.2473,-4.2493,-4.2415,-4.2517,-4.2529,-4.2549,-4.2566,-4.2579,-4.2593,-4.2442,-4.2442,-4.2442,-4.261,-4.2581,-4.2637,-4.2609,-4.2623,-4.26,-4.2607,-4.2598,-4.2566,-4.259,-4.2597,-4.2692,-4.2713,-4.2722,-4.2738,-4.2616,-4.2616,-4.2616,-4.2617,-4.2735,-4.2765,-4.2719,-4.2756,-4.2724,-4.2755,-4.2734,-4.2709,-4.2731,-4.2686,-4.2702,-4.2653,-4.2739,-4.2751,-4.2621,-4.262,-4.262,-4.2619,-4.2619,-4.2832,-4.2841,-4.2836,-4.2851,-4.2865,-4.2834,-4.2856,-4.2827,-4.28,-4.2816,-4.2818,-4.2817,-4.281,-4.282,-4.282,-4.282,-4.282,-4.2821,-4.2821,-4.2934,-4.2926,-4.2949,-4.2947,-4.295,-4.2951,-4.2926,-4.2928,-4.2923,-4.2899,-4.2899,-4.2862,-4.2754,-4.2726,-4.2826,-4.2825,-4.2824,-4.2824,-4.2824,-4.3068,-4.3032,-4.3068,-4.3071,-4.3064,-4.3079,-4.3041,-4.3047,-4.3044,-4.3055,-4.3014,-4.294,-4.292,-4.291,-4.2887,-4.3022,-4.3022,-4.3022,-4.3022,-4.3148,-4.3135,-4.3163,-4.317,-4.3173,-4.3141,-4.3179,-4.3159,-4.3133,-4.3129,-4.3105,-4.3072,-4.3063,-4.3049,-4.3036,-4.3013,-4.3178,-4.3178,-4.3178,-4.3227,-4.3213,-4.3252,-4.3226,-4.3218,-4.321,-4.3244,-4.3251,-4.3214,-4.3184,-4.3124,-4.3118,-4.3064,-4.3048,-4.3016,-4.2996,-4.2954,0,0]}]]